(338412) = 2003 BD41

Discovered at Socorro on 2003-01-28 by LINEAR.

Orbit

Orbit type: Main Belt

Note: WebGL enabled browser required.

epoch2023-09-13.0
epoch JD2460200.5
perihelion date2023-06-10.50111
perihelion JD2460106.00111
argument of perihelion (°)219.76542
ascending node (°)138.60638
inclination (°)5.06505
eccentricity0.0105124
perihelion distance (AU)2.3292541
Tisserand w.r.t. Jupiter3.6
ΔV w.r.t. Earth (km/sec)9.6
semimajor axis (AU)2.3540003
mean anomaly (°)25.78819
mean daily motion (°/day)0.27289410
aphelion distance (AU)2.379
period (years)3.61
P-vector [x]0.99794466
P-vector [y]-0.00532485
P-vector [z]-0.06385994
Q-vector [x]0.02642898
Q-vector [y]0.94204019
Q-vector [z]0.33445747
absolute magnitude17.3
phase slope0.15
uncertainty0
referenceMPEC 2023-X165
observations used343
oppositions14
arc length (days)7619
first opposition used2003
last opposition used2023
residual rms (arc-secs)0.79
perturbers coarse indicatorM-v
perturbers precise indicator003Ek
first observation date used2003-01-28.0
last observation date used2023-12-08.0
computer nameMPCLINUX
JD of orbit computation2456937.453290
perihelion JD uncertainty (days)6.7023E-04
argument of perihelion uncertainty (°)1.9102E-04
ascending node uncertainty (°)5.9192E-05
inclination uncertainty (°)5.5684E-06
eccentricity uncertainty 7.0460E-08
perihelion distance uncertainty (AU)1.6605E-07
Minimum Orbit Intersection Distances (in AU)
for orbit epoch: 2460200.5, reference: E2023-XF2
Mercury1.8948
Venus1.6024
Earth1.32094
Mars0.71087
Jupiter2.62631
Saturn6.70124
Uranus16.0692
Neptune27.5089

Observations

352 total observations over interval: 2003 01 28.34080 – 2023 12 08.412514
These data are available for download (format description).

Date (UT) J2000 RA J2000 Dec Magn Location Ref
2003 01 28.34080 08 41 43.01 +16 37 06.6 20.1   704 – Lincoln Laboratory ETS, New Mexico MPS 71931
2003 01 28.35629 08 41 41.93 +16 37 12.1 19.8   704 – Lincoln Laboratory ETS, New Mexico MPS 71931
2003 01 28.37152 08 41 41.07 +16 37 17.9 20.0   704 – Lincoln Laboratory ETS, New Mexico MPS 71931
2003 01 30.24664 08 39 46.42 +16 49 15.1 19.8   644 – Palomar Mountain/NEAT MPS 71931
2003 01 30.32445 08 39 41.48 +16 49 45.3 20.2   644 – Palomar Mountain/NEAT MPS 71931
2003 01 30.39819 08 39 36.81 +16 50 13.1 20.6   644 – Palomar Mountain/NEAT MPS 71931
2005 10 01.46053 03 27 30.69 +10 59 56.1 21.3 V 291 – LPL/Spacewatch II MPS 234183
2005 10 01.46806 03 27 30.57 +10 59 54.0 21.1 V 291 – LPL/Spacewatch II MPS 234183
2005 10 01.47594 03 27 30.44 +10 59 52.5 21.2 V 291 – LPL/Spacewatch II MPS 234183
2005 11 03.30949 03 05 42.07 +08 21 53.4 19.5 V 703 – Catalina Sky Survey MPS 234183
2005 11 03.31377 03 05 41.78 +08 21 51.8 20.2 V 703 – Catalina Sky Survey MPS 234183
2005 11 03.31803 03 05 41.53 +08 21 51.0 20.3 V 703 – Catalina Sky Survey MPS 234183
2005 11 03.32233 03 05 41.28 +08 21 49.3 20.3 V 703 – Catalina Sky Survey MPS 234183
2005 11 04.30036 03 04 43.82 +08 17 13.0 19.7 V 703 – Catalina Sky Survey MPS 234183
2005 11 04.30617 03 04 43.35 +08 17 10.3 19.6 V 703 – Catalina Sky Survey MPS 234183
2005 11 04.31199 03 04 43.10 +08 17 08.9 20.2 V 703 – Catalina Sky Survey MPS 234183
2005 11 04.31779 03 04 42.70 +08 17 06.2 19.5 V 703 – Catalina Sky Survey MPS 234183
2005 11 04.33322 03 04 41.80 +08 17 02.7 19.8 V G96 – Mt. Lemmon Survey MPS 1184021
2005 11 04.33983 03 04 41.41 +08 17 00.9 19.8 V G96 – Mt. Lemmon Survey MPS 1184021
2005 11 04.34648 03 04 41.01 +08 16 59.0 19.7 V G96 – Mt. Lemmon Survey MPS 1184021
2005 11 04.35312 03 04 40.54 +08 16 57.7 19.5 V G96 – Mt. Lemmon Survey MPS 1184021
2005 11 04.37757 03 04 39.03 +08 16 51.1 19.9 V 703 – Catalina Sky Survey MPS 234183
2005 11 04.38108 03 04 38.82 +08 16 50.1 20.1 V 703 – Catalina Sky Survey MPS 234183
2005 11 04.38460 03 04 38.64 +08 16 49.1 20.6 V 703 – Catalina Sky Survey MPS 234183
2005 11 04.38808 03 04 38.38 +08 16 46.2 20.2 V 703 – Catalina Sky Survey MPS 234183
2007 01 17.51691 12 27 27.79 +00 00 19.9 22.3 V G96 – Mt. Lemmon Survey MPS 234183
2007 01 17.52234 12 27 27.93 +00 00 19.2 21.6 V G96 – Mt. Lemmon Survey MPS 234183
2007 01 17.52792 12 27 28.15 +00 00 19.4 21.4 V G96 – Mt. Lemmon Survey MPS 234183
2007 01 17.53336 12 27 28.26 +00 00 19.3 20.8 V G96 – Mt. Lemmon Survey MPS 234183
2007 02 25.35590 12 28 21.07 +02 04 55.4 20.8 V G96 – Mt. Lemmon Survey MPS 234183
2007 02 25.36389 12 28 20.82 +02 04 58.4 20.0 V G96 – Mt. Lemmon Survey MPS 234183
2007 02 25.37191 12 28 20.56 +02 05 01.8 20.1 V G96 – Mt. Lemmon Survey MPS 234183
2007 02 25.38001 12 28 20.31 +02 05 05.7 20.0 V G96 – Mt. Lemmon Survey MPS 234183
2007 03 14.16705 12 16 35.68 +04 12 51.8 21.0 V 691 – Steward Observatory, Kitt Peak-Spacewatch MPS 234183
2007 03 14.18474 12 16 34.75 +04 13 00.6 20.7 V 691 – Steward Observatory, Kitt Peak-Spacewatch MPS 234183
2007 03 14.20242 12 16 33.81 +04 13 09.2 20.5 V 691 – Steward Observatory, Kitt Peak-Spacewatch MPS 234183
2008 07 30.31596 21 35 59.46 -13 47 00.6 20.1 V G96 – Mt. Lemmon Survey MPS 252908
2008 07 30.32039 21 35 59.24 -13 47 02.2 20.1 V G96 – Mt. Lemmon Survey MPS 252908
2008 07 30.32483 21 35 58.95 -13 47 03.7 19.7 V G96 – Mt. Lemmon Survey MPS 252908
2008 07 30.32926 21 35 58.74 -13 47 05.6 19.9 V G96 – Mt. Lemmon Survey MPS 252908
2008 08 11.01052 21 25 38.73 -15 08 44.2 19.9 V J75 – OAM Observatory, La Sagra MPS 253987
2008 08 11.02368 21 25 38.03 -15 08 49.7 19.6 V J75 – OAM Observatory, La Sagra MPS 253987
2008 08 11.03683 21 25 37.21 -15 08 55.4 19.4 V J75 – OAM Observatory, La Sagra MPS 253987
2011 06 02.33409 15 15 46.666 -09 20 56.23 20.8 w F51 – Pan-STARRS 1, Haleakala MPS 383976
2011 06 02.34737 15 15 46.004 -09 20 55.17 20.9 w F51 – Pan-STARRS 1, Haleakala MPS 383976
2011 06 02.36063 15 15 45.346 -09 20 54.47 20.8 w F51 – Pan-STARRS 1, Haleakala MPS 383976
2011 06 02.37390 15 15 44.669 -09 20 53.35 20.8 w F51 – Pan-STARRS 1, Haleakala MPS 383976
2012 09 21.35387 01 16 50.48 +00 50 23.4 20.7 V 703 – Catalina Sky Survey MPS 431860
2012 09 21.35890 01 16 50.23 +00 50 21.1 21.4 V 703 – Catalina Sky Survey MPS 431860
2012 09 21.36399 01 16 50.16 +00 50 18.6 21.0 V 703 – Catalina Sky Survey MPS 431860
2012 09 21.36905 01 16 49.90 +00 50 18.4 21.3 V 703 – Catalina Sky Survey MPS 431860
2012 10 07.493162 01 03 22.886 -01 09 03.36 19.9 r F51 – Pan-STARRS 1, Haleakala MPS 434096
2012 10 07.504767 01 03 22.238 -01 09 08.33 20.0 r F51 – Pan-STARRS 1, Haleakala MPS 434096
2012 10 07.531256 01 03 20.737 -01 09 19.57 19.8 i F51 – Pan-STARRS 1, Haleakala MPS 434096
2012 10 11.28618 00 59 58.05 -01 35 15.7 19.9 V G96 – Mt. Lemmon Survey MPS 434999
2012 10 11.29308 00 59 57.73 -01 35 18.5 20.0 V G96 – Mt. Lemmon Survey MPS 434999
2012 10 11.29994 00 59 57.30 -01 35 21.3 19.9 V G96 – Mt. Lemmon Survey MPS 434999
2012 10 11.30681 00 59 56.94 -01 35 24.0 20.1 V G96 – Mt. Lemmon Survey MPS 434999
2012 10 11.37339 00 59 53.19 -01 35 50.9 20.0 V G96 – Mt. Lemmon Survey MPS 434999
2012 10 11.37620 00 59 53.01 -01 35 51.9 20.1 V G96 – Mt. Lemmon Survey MPS 434999
2012 10 11.37902 00 59 52.87 -01 35 53.2 20.1 V G96 – Mt. Lemmon Survey MPS 434999
2012 10 11.38179 00 59 52.69 -01 35 54.1 20.1 V G96 – Mt. Lemmon Survey MPS 434999
2012 10 15.338748 00 56 22.202 -02 01 16.69 20.3 w F51 – Pan-STARRS 1, Haleakala MPS 434999
2012 10 15.346357 00 56 21.786 -02 01 19.57 20.2 w F51 – Pan-STARRS 1, Haleakala MPS 434999
2012 10 15.357916 00 56 21.149 -02 01 23.89 20.1 w F51 – Pan-STARRS 1, Haleakala MPS 434999
2012 10 15.364473 00 56 20.794 -02 01 26.23 20.2 w F51 – Pan-STARRS 1, Haleakala MPS 434999
2012 10 15.372445 00 56 20.352 -02 01 29.22 20.6 w F51 – Pan-STARRS 1, Haleakala MPS 434999
2012 10 15.379049 00 56 19.988 -02 01 31.62 20.2 w F51 – Pan-STARRS 1, Haleakala MPS 434999
2012 10 15.387067 00 56 19.545 -02 01 34.64 20.3 w F51 – Pan-STARRS 1, Haleakala MPS 434999
2012 10 15.393693 00 56 19.184 -02 01 37.02 20.2 w F51 – Pan-STARRS 1, Haleakala MPS 434999
2012 11 05.295053 00 41 29.368 -03 27 30.12 20.7 w F51 – Pan-STARRS 1, Haleakala MPS 441590
2012 11 05.325211 00 41 28.407 -03 27 33.35 20.6 w F51 – Pan-STARRS 1, Haleakala MPS 441590
2012 11 05.340337 00 41 27.937 -03 27 35.02 20.5 w F51 – Pan-STARRS 1, Haleakala MPS 441590
2014 01 23.34498 10 36 31.79 +09 32 24.0   691 – Steward Observatory, Kitt Peak-Spacewatch MPS 498368
2014 01 23.36267 10 36 31.31 +09 32 28.8   691 – Steward Observatory, Kitt Peak-Spacewatch MPS 498368
2014 01 23.38037 10 36 30.79 +09 32 34.7   691 – Steward Observatory, Kitt Peak-Spacewatch MPS 498368
2014 02 10.39075 10 24 07.559 +11 34 07.21 19.9 i F51 – Pan-STARRS 1, Haleakala MPS 501578
2014 02 10.40262 10 24 06.911 +11 34 12.72 19.9 i F51 – Pan-STARRS 1, Haleakala MPS 501578
2014 02 10.41450 10 24 06.271 +11 34 18.24 19.9 i F51 – Pan-STARRS 1, Haleakala MPS 501578
2014 02 20.18088 10 15 10.70 +12 50 51.5 19.4 r I41 – Palomar Mountain--ZTF MPS 502263
2014 02 20.19711 10 15 09.76 +12 50 58.8 19.7 r I41 – Palomar Mountain--ZTF MPS 502263
2014 02 20.20755 10 15 09.12 +12 51 04.0 19.8 r I41 – Palomar Mountain--ZTF MPS 502263
2014 02 20.21220 10 15 08.87 +12 51 06.0 19.7 r I41 – Palomar Mountain--ZTF MPS 502263
2014 02 20.22148 10 15 08.29 +12 51 10.7 19.7 r I41 – Palomar Mountain--ZTF MPS 502263
2014 02 20.22731 10 15 07.97 +12 51 13.3 19.6 r I41 – Palomar Mountain--ZTF MPS 502263
2014 02 20.24241 10 15 07.10 +12 51 20.4 19.7 r I41 – Palomar Mountain--ZTF MPS 502263
2014 02 20.24939 10 15 06.68 +12 51 23.8 19.8 r I41 – Palomar Mountain--ZTF MPS 502263
2014 02 20.25755 10 15 06.22 +12 51 27.7 19.9 r I41 – Palomar Mountain--ZTF MPS 502263
2014 02 20.26338 10 15 05.85 +12 51 30.5 19.8 r I41 – Palomar Mountain--ZTF MPS 502263
2014 02 20.27271 10 15 05.34 +12 51 34.7 19.8 r I41 – Palomar Mountain--ZTF MPS 502263
2014 02 20.27857 10 15 04.96 +12 51 37.7 20.0 r I41 – Palomar Mountain--ZTF MPS 502263
2014 02 20.30560 10 15 03.36 +12 51 50.5 19.6 V G96 – Mt. Lemmon Survey MPS 502263
2014 02 20.31073 10 15 03.08 +12 51 52.6 19.8 r I41 – Palomar Mountain--ZTF MPS 502263
